User: anonymous   Login
Location: house
(32.4460°N, 85.5928°W)
Time: 04:13:13
(UTC-05:00)
Language:

NO-84 - Orbit

View from above orbital plane
View from above orbital plane
View from above satellite
View from above satellite

Ground track
Ground track

The orbit data is extracted from the following two-line orbital elements,

1 40654U 15025D   19289.17805757  .00008378  00000 0  11678-3 0  7484
2 40654  54.9912 347.0502 0128133 273.5807  85.0537 15.48899034130959
Epoch (UTC): 16 October 2019 04:16:24
Eccentricity: 0.0128133
inclination: 54.9912°
perigee height: 333 km
apogee height: 507 km
right ascension of ascending node: 347.0502°
argument of perigee: 273.5807°
revolutions per day: 15.48899034
mean anomaly at epoch: 85.0537°
orbit number at epoch: 13095

The dashed part of the orbit path shows where the satellite is in the earth's shadow,  

DLR